Weather in San Borja

Bolivia     14°52′34″S   66°45′52″W
temp.,
°C
wind,
m/s
gust,
m/s
humid.,
%
clouds,
%
prec.,
mm/h
press.,
hPa
HPBL,
m
10 may, mon
mon1023:00+18wsw11935 0.0 101511
02:00+18wnw009623 0.0 101511
05:00+17wsw009886 0.0 101512
08:00+20ssw11865 0.0 1017122
11:00+28n11585 0.0 1017777
14:00+30n12505 0.0 10131231
17:00+27nnw12703 0.0 101196
20:00+21ne11775 0.0 101311
11 may, tue
tue1123:00+20sse11855 0.0 101611
02:00+19ssw11904 0.0 101518
05:00+19s11924 0.0 101411
08:00+22s12810 0.0 1016108
11:00+29ese12520 0.0 1015956
14:00+31nne12452 0.0 10111738
17:00+28nw13682 0.0 1010113
20:00+23e11815 0.0 101211
12 may, wed
wed1223:00+21sw11902 0.1 101411
02:00+20sse279994 0.9 1014188
05:00+20sse299920 0.0 1015327
08:00+20se299699 0.0 1017496
11:00+26se346114 0.0 1017948
14:00+28ese335457 0.0 10131359
17:00+25ese2568100 0.0 1012352
20:00+21se297966 0.0 1015275
13 may, thu
thu1323:00+21se21076100 0.0 1016404
02:00+19se2978100 0.0 1016429
05:00+19sse2777100 0.0 1016375
08:00+19se1776100 0.0 1017338
11:00+20se1372100 0.0 1018305
14:00+24e115870 0.0 1014543
17:00+23n1274100 0.0 101276
20:00+19w11820 0.0 101311
14 may, fri
fri1423:00+18ssw11865 0.0 101511
02:00+18s11895 0.0 101513
05:00+17s119133 0.0 101513
08:00+20sse018299 0.0 1016110
11:00+22sw0182100 0.0 101792
14:00+29ne11545 0.0 10131037
17:00+27n127199 0.0 1010133
20:00+22ssw0085100 0.0 101211